Location: Bismarck
(46.7731°N, 100.8200°W)
Time: 17:08:38
(UTC-05:00)

Amateur Radio Satellites - All Passes

Search period start: 22 May 2015 16:38
Search period end: 23 May 2015 16:38
Location: Bismarck, 46.7731°N, 100.8200°W

Satellite Date Start Highest point End Downlink Frequencies (MHz)
Time Altitude Azimuth
O/OREOS (USA 219) 22 May 16:40:00 16:42:21 14° 100° (E) 16:44:53 437.305
DANDE 22 May 16:44:05 16:50:12 28° 302° (WNW) 16:57:03 436.750
GONETS M04 22 May 16:57:17 17:04:36 27° 300° (WNW) 17:11:42
MOZHAYETS 4 22 May 17:01:13 17:02:02 11° 85° (E) 17:03:09
RS-15 22 May 17:15:07 17:25:29 38° 23° (NNE) 17:36:21 29.354- 29.394
CUTE-I 22 May 17:17:06 17:19:05 12° 54° (NE) 17:21:18 437.470
JAS-2 22 May 17:17:32 17:24:14 51° 261° (W) 17:30:11 435.910
AO-7 22 May 17:22:36 17:30:44 56° 258° (WSW) 17:38:53 29.400- 29.500
STARS 22 May 17:22:46 17:27:13 70° 286° (WNW) 17:31:37 437.465
Cubesat XI-IV 22 May 17:34:36 17:37:53 17° 58° (ENE) 17:41:21 437.490
HORYU 2 22 May 17:36:24 17:39:56 22° 268° (W) 17:43:22 437.375
KKS-1 22 May 17:42:57 17:46:55 30° 294° (WNW) 17:50:49 437.445
Cosmos 2499 22 May 17:53:21 18:01:12 46° 288° (WNW) 18:08:28 435.465 / 435.565
O/OREOS (USA 219) 22 May 18:16:46 18:21:17 68° 297° (WNW) 18:25:47 437.305
MOZHAYETS 4 22 May 18:35:27 18:40:03 89° 284° (WNW) 18:44:37
YUBILEINY 22 May 18:40:47 18:47:54 28° 61° (ENE) 18:55:12 435.215
Cosmos 2491 22 May 18:52:44 18:55:01 12° 71° (ENE) 18:57:59 435.465 / 435.565
CUTE-I 22 May 18:53:02 18:58:18 70° 73° (ENE) 19:03:38 437.470
Cubesat XI-IV 22 May 19:12:05 19:17:24 82° 256° (WSW) 19:22:46 437.490
STRAND 1 22 May 19:22:04 19:23:45 12° 85° (E) 19:25:45 437.568
AO-7 22 May 19:24:29 19:25:47 10° 281° (W) 19:26:20 29.400- 29.500
HO-68 22 May 19:26:35 19:31:05 19° 50° (NE) 19:35:50 435.675
RS-15 22 May 19:28:11 19:39:47 84° 52° (NE) 19:51:55 29.354- 29.394
BRITE-PL 22 May 19:32:43 19:36:05 19° 59° (ENE) 19:39:47 437.365/2234.400
BEESAT 3 22 May 19:33:23 19:36:03 17° 113° (ESE) 19:38:50 437.485
DOVE 4 22 May 19:48:52 19:50:45 12° 55° (NE) 19:52:55 437.250
GOMX 1 22 May 19:59:54 20:03:39 21° 61° (ENE) 20:07:40 467.674
O/OREOS (USA 219) 22 May 20:00:03 20:01:41 11° 319° (NW) 20:03:09 437.305
CUBESAT XI-V 22 May 20:00:18 20:04:56 60° 100° (E) 20:09:35 437.345
BEESAT 2 22 May 20:14:12 20:17:56 35° 118° (ESE) 20:21:46 435.950
MOZHAYETS 4 22 May 20:14:39 20:16:39 12° 301° (WNW) 20:18:27
PRISM 22 May 20:17:40 20:21:34 40° 98° (E) 20:25:30 437.425
CUTE-I 22 May 20:35:25 20:39:01 18° 272° (W) 20:42:26 437.470
YUBILEINY 22 May 20:37:03 20:45:46 75° 265° (W) 20:54:24 435.215
CANX-2 22 May 20:41:36 20:45:14 28° 68° (ENE) 20:48:57 2200.000
Cosmos 2491 22 May 20:41:36 20:50:06 59° 92° (E) 20:58:44 435.465 / 435.565
CUTE 1.7 + AOD 2 22 May 20:45:54 20:49:34 29° 68° (ENE) 20:53:16 437.475
M-CUBED/EXP-1 PRIME 22 May 20:52:35 20:55:41 34° 103° (ESE) 20:58:44 437.505
Cubesat XI-IV 22 May 20:56:30 20:58:29 12° 276° (W) 21:00:10 437.490
STRAND 1 22 May 20:58:41 21:03:51 85° 102° (ESE) 21:09:01 437.568
AIST 1 22 May 21:01:29 21:02:23 11° 83° (E) 21:03:32
AUBIESAT-1 22 May 21:05:22 21:08:35 42° 104° (ESE) 21:11:44 437.475
Cosmos 2504 22 May 21:06:07 21:11:14 20° 58° (ENE) 21:16:30 435.465 / 435.565
BRITE-PL 22 May 21:09:00 21:13:58 75° 258° (WSW) 21:19:24 437.365/2234.400
BEESAT 3 22 May 21:09:37 21:13:39 58° 310° (NW) 21:17:45 437.485
HO-68 22 May 21:10:38 21:17:47 75° 70° (ENE) 21:25:00 435.675
AIST 2 22 May 21:10:40 21:14:39 40° 119° (ESE) 21:18:43 435.215
FUNcube-1 22 May 21:12:06 21:13:21 11° 58° (ENE) 21:14:50 145.935
SEEDS 22 May 21:15:43 21:19:47 47° 72° (ENE) 21:23:52 437.485
DELFI C3 22 May 21:19:42 21:21:43 14° 62° (ENE) 21:23:52 145.870
DOVE 4 22 May 21:22:34 21:27:36 70° 74° (ENE) 21:32:53 437.250
CUBEBUG 2 22 May 21:24:58 21:28:36 23° 64° (ENE) 21:32:22 437.445
GOMX 1 22 May 21:36:16 21:41:16 64° 260° (W) 21:46:37 467.674
CINEMA 3 22 May 21:36:22 21:41:09 51° 71° (ENE) 21:46:03 145.822/145.860
COMPASS 1 22 May 21:36:40 21:40:50 64° 74° (ENE) 21:44:59 437.405
CUBESAT XI-V 22 May 21:38:42 21:41:59 19° 298° (WNW) 21:45:09 437.345
RS-15 22 May 21:41:26 21:51:17 32° 254° (WSW) 22:01:04 29.354- 29.394
ZACube-1 22 May 21:47:49 21:51:27 24° 65° (ENE) 21:55:09 437.345
BEESAT 2 22 May 21:52:20 21:56:04 31° 317° (NW) 21:59:49 435.950
AAUSAT CUBESAT 2 22 May 21:52:57 21:57:09 82° 76° (ENE) 22:01:20 437.432
PRISM 22 May 21:53:38 21:56:49 21° 296° (WNW) 21:59:56 437.425
UKube-1 22 May 22:00:56 22:03:35 16° 61° (ENE) 22:06:22 .
DX 1 22 May 22:02:14 22:05:08 18° 62° (ENE) 22:08:10 434.975-435.025
Oscar 11 22 May 22:10:44 22:15:01 61° 73° (ENE) 22:19:20 145.826/435.025
CANX-2 22 May 22:17:19 22:21:08 30° 265° (W) 22:24:55 2200.000
UWE-3 22 May 22:21:22 22:25:59 59° 73° (ENE) 22:30:37 435.000/436.395/437.385
HUMSAT D 22 May 22:21:23 22:24:48 24° 66° (ENE) 22:28:18 437.325/437.525
CUTE 1.7 + AOD 2 22 May 22:21:38 22:25:27 30° 265° (W) 22:29:13 437.475
AISAT 22 May 22:27:31 22:30:23 18° 62° (ENE) 22:33:25 437.250
M-CUBED/EXP-1 PRIME 22 May 22:28:05 22:30:23 17° 301° (WNW) 22:32:33 437.505
AIST 1 22 May 22:35:12 22:39:27 76° 280° (W) 22:43:45
YUBILEINY 22 May 22:36:08 22:41:13 16° 285° (WNW) 22:45:48 435.215
STRAND 1 22 May 22:39:20 22:42:27 16° 302° (WNW) 22:45:24 437.568
Cosmos 2491 22 May 22:39:28 22:47:30 37° 294° (WNW) 22:55:27 435.465 / 435.565
AUBIESAT-1 22 May 22:41:10 22:43:06 14° 303° (WNW) 22:44:55 437.475
FUNcube-1 22 May 22:44:23 22:48:59 78° 75° (ENE) 22:53:35 145.935
50 SAT 22 May 22:48:57 22:52:13 25° 67° (ENE) 22:55:33 437.505
AIST 2 22 May 22:49:32 22:53:21 30° 319° (NW) 22:57:09 435.215
BEESAT 3 22 May 22:50:29 22:52:32 13° 332° (NNW) 22:54:30 437.485
DELFI C3 22 May 22:52:22 22:56:23 64° 258° (WSW) 23:00:24 145.870
SEEDS 22 May 22:52:53 22:55:53 18° 270° (W) 22:58:45 437.485
BRITE-PL 22 May 22:53:01 22:53:42 10° 280° (W) 22:54:03 437.365/2234.400
Cosmos 2504 22 May 22:58:27 23:05:49 85° 263° (W) 23:12:59 435.465 / 435.565
CUBEBUG 2 22 May 23:00:23 23:05:01 50° 262° (W) 23:09:40 437.445
HO-68 22 May 23:00:35 23:06:18 24° 270° (W) 23:11:48 435.675
DOVE 4 22 May 23:02:35 23:06:00 17° 274° (W) 23:09:17 437.250
UNISAT 6 22 May 23:03:12 23:04:06 11° 85° (E) 23:05:17 437.425
GONETS M04 22 May 23:11:06 23:13:08 11° 43° (NE) 23:15:43
CINEMA 3 22 May 23:14:42 23:18:39 23° 270° (W) 23:22:33 145.822/145.860
COMPASS 1 22 May 23:14:51 23:17:00 13° 272° (W) 23:18:57 437.405
ESTCUBE 1 22 May 23:17:03 23:20:54 29° 67° (ENE) 23:24:50 437.505/2401.250
CUSAT 1 22 May 23:18:00 23:21:38 14° 45° (NE) 23:25:24 437.405
ZACube-1 22 May 23:23:10 23:27:35 43° 262° (W) 23:31:59 437.345
VELOX 1 22 May 23:32:15 23:36:38 67° 74° (ENE) 23:41:05 145.980
AAUSAT CUBESAT 2 22 May 23:32:58 23:33:25 10° 275° (W) 23:33:37 437.432
UKube-1 22 May 23:35:02 23:39:18 61° 259° (WSW) 23:43:38 .
DX 1 22 May 23:36:45 23:41:01 55° 259° (W) 23:45:21 434.975-435.025
ANTELSAT 22 May 23:44:05 23:47:56 28° 94° (E) 23:51:44 437.575/2403.000
CUBEBUG 1 22 May 23:44:25 23:48:34 46° 71° (ENE) 23:52:48 437.445
Oscar 11 22 May 23:49:09 23:51:40 15° 272° (W) 23:54:01 145.826/435.025
TISAT 1 22 May 23:50:01 23:51:57 13° 60° (ENE) 23:54:04 437.305
DANDE 22 May 23:55:53 00:01:48 21° 52° (NE) 00:07:26 436.750
HUMSAT D 22 May 23:56:18 00:00:22 39° 263° (W) 00:04:27 437.325/437.525
UWE-3 22 May 23:59:43 00:02:56 17° 271° (W) 00:05:59 435.000/436.395/437.385
POLYITAN 1 23 May 00:00:08 00:03:17 20° 91° (E) 00:06:30 437.675
QB50P1 23 May 00:00:48 00:03:57 20° 91° (E) 00:07:11 145.935-145.965
AISAT 23 May 00:02:11 00:06:34 59° 259° (WSW) 00:11:01 437.250
BUGSAT 1 23 May 00:07:03 00:09:40 16° 89° (E) 00:12:26 437.445
TIGRISAT 23 May 00:18:50 00:23:17 62° 101° (E) 00:27:35 435.000
50 SAT 23 May 00:23:13 00:26:51 31° 264° (W) 00:30:26 437.505
FUNcube-1 23 May 00:23:46 00:25:57 13° 274° (W) 00:27:54 145.935
NANOSAT C BR1 23 May 00:33:18 00:37:24 42° 98° (E) 00:41:28 145.865
UNISAT 6 23 May 00:37:09 00:41:40 84° 287° (WNW) 00:46:01 437.425
QB50P2 23 May 00:37:44 00:41:55 48° 99° (E) 00:46:04 145.880/145.840
SPROUT 23 May 00:41:23 00:45:35 52° 72° (ENE) 00:49:50 437.525
POPSAT HIP 1 23 May 00:51:10 00:55:29 65° 102° (ESE) 00:59:44 437.405
ESTCUBE 1 23 May 00:53:41 00:57:44 32° 265° (W) 01:01:46 437.505/2401.250
Cosmos 2504 23 May 00:53:58 00:58:06 16° 283° (WNW) 01:01:50 435.465 / 435.565
DUCHIFAT 1 23 May 00:57:01 01:01:19 73° 102° (ESE) 01:05:35 145.980
CUSAT 1 23 May 00:58:54 01:06:41 54° 70° (ENE) 01:13:03 437.405
GONETS M04 23 May 01:04:39 01:13:03 47° 70° (ENE) 01:21:27
VELOX 1 23 May 01:11:20 01:13:44 14° 272° (W) 01:15:58 145.980
ANTELSAT 23 May 01:20:45 01:24:45 32° 293° (WNW) 01:28:37 437.575/2403.000
CUBEBUG 1 23 May 01:22:00 01:25:13 19° 269° (W) 01:28:21 437.445
TISAT 1 23 May 01:22:57 01:27:12 77° 257° (WSW) 01:31:29 437.305
POLYITAN 1 23 May 01:35:19 01:39:26 43° 290° (WNW) 01:43:29 437.675
QB50P1 23 May 01:35:57 01:40:03 43° 290° (WNW) 01:44:07 145.935-145.965
DANDE 23 May 01:38:16 01:46:45 78° 77° (ENE) 01:53:48 436.750
ITUPSAT 1 23 May 01:38:47 01:42:52 30° 66° (ENE) 01:47:02 437.325
BUGSAT 1 23 May 01:41:19 01:45:32 54° 288° (WNW) 01:49:42 437.445
ISS 23 May 01:42:47 01:44:52 16° 137° (SE) 01:47:01 145.825
Cosmos 2499 23 May 01:49:04 01:52:52 15° 54° (NE) 01:56:58 435.465 / 435.565
BEESAT 23 May 01:49:11 01:53:32 37° 68° (ENE) 01:57:56 436.000
TIGRISAT 23 May 01:56:41 01:59:35 17° 299° (WNW) 02:02:17 435.000
SWISSCUBE 23 May 01:56:42 02:01:14 47° 70° (ENE) 02:05:49 437.505
Oscar 19 23 May 02:05:51 02:09:05 17° 88° (E) 02:12:29 437.125/150
NANOSAT C BR1 23 May 02:09:40 02:13:00 22° 295° (WNW) 02:16:15 145.865
QB50P2 23 May 02:14:22 02:17:30 20° 296° (WNW) 02:20:32 145.880/145.840
UNISAT 6 23 May 02:16:15 02:17:45 11° 302° (WNW) 02:19:02 437.425
SPROUT 23 May 02:19:07 02:22:02 17° 270° (W) 02:24:50 437.525
POPSAT HIP 1 23 May 02:28:18 02:30:53 15° 299° (WNW) 02:33:20 437.405
DUCHIFAT 1 23 May 02:34:21 02:36:37 14° 299° (WNW) 02:38:43 145.980
CUSAT 1 23 May 02:42:08 02:49:01 34° 274° (W) 02:54:42 437.405
O/OREOS (USA 219) 23 May 02:44:45 02:49:04 46° 59° (ENE) 02:53:23 437.305
STARS 23 May 02:47:35 02:50:35 19° 62° (ENE) 02:53:43 437.465
BEESAT 2 23 May 02:53:38 02:55:35 13° 28° (NNE) 02:57:35 435.950
PCSat 23 May 03:00:50 03:06:08 59° 118° (ESE) 03:11:30 145.827
GONETS M04 23 May 03:01:43 03:09:57 45° 272° (W) 03:18:00
KKS-1 23 May 03:07:05 03:11:16 41° 69° (ENE) 03:15:32 437.445
ITUPSAT 1 23 May 03:16:19 03:20:42 35° 264° (W) 03:25:04 437.325
ISS 23 May 03:17:40 03:20:55 89° 301° (WNW) 03:24:12 145.825
DANDE 23 May 03:22:35 03:29:05 25° 279° (W) 03:34:35 436.750
BEESAT 23 May 03:27:22 03:31:29 28° 266° (W) 03:35:33 436.000
SWISSCUBE 23 May 03:35:38 03:39:22 22° 268° (W) 03:43:01 437.505
Cosmos 2499 23 May 03:40:27 03:47:36 76° 80° (E) 03:54:41 435.465 / 435.565
Oscar 19 23 May 03:43:52 03:49:03 70° 288° (WNW) 03:54:10 437.125/150
ITAMSAT 1 23 May 03:47:52 03:52:48 42° 98° (E) 03:57:45 435.822/435.867
BEESAT 3 23 May 03:48:04 03:51:44 30° 42° (NE) 03:55:21 437.485
AIST 2 23 May 03:52:01 03:54:26 15° 29° (NNE) 03:56:55 435.215
Gurwin Techsat 1B 23 May 03:59:02 04:04:13 50° 99° (E) 04:09:23 435.225
MOZHAYETS 4 23 May 04:05:12 04:07:52 16° 61° (ENE) 04:10:42
STARS 23 May 04:22:18 04:26:40 56° 259° (W) 04:31:05 437.465
O/OREOS (USA 219) 23 May 04:24:49 04:28:13 21° 257° (WSW) 04:31:30 437.305
JAS-2 23 May 04:25:02 04:28:02 16° 87° (E) 04:31:15 435.910
BEESAT 2 23 May 04:30:29 04:34:34 56° 49° (NE) 04:38:35 435.950
KKS-1 23 May 04:44:29 04:48:06 23° 267° (W) 04:51:39 437.445
PCSat 23 May 04:45:13 04:49:56 29° 319° (NW) 04:54:39 145.827
VERMONT LUNAR 23 May 04:50:43 04:52:06 12° 157° (SSE) 04:53:33 437.305
ISS 23 May 04:54:33 04:57:36 35° 353° (N) 05:00:40 145.825
SO-50 23 May 05:15:16 05:19:43 44° 119° (ESE) 05:24:20 436.795
AO-7 23 May 05:20:36 05:28:29 44° 98° (E) 05:36:25 29.400- 29.500
HORYU 2 23 May 05:23:27 05:27:51 58° 101° (E) 05:32:13 437.375
Oscar 19 23 May 05:25:35 05:27:34 12° 305° (NW) 05:29:18 437.125/150
BEESAT 3 23 May 05:25:59 05:29:46 36° 241° (WSW) 05:33:27 437.485
ITAMSAT 1 23 May 05:27:39 05:32:11 30° 296° (WNW) 05:36:39 435.822/435.867
AIST 2 23 May 05:29:36 05:33:51 67° 51° (NE) 05:38:01 435.215
CUBESAT XI-V 23 May 05:32:55 05:34:14 11° 58° (ENE) 05:35:46 437.345
Cosmos 2499 23 May 05:34:56 05:39:59 21° 279° (W) 05:44:46 435.465 / 435.565
Gurwin Techsat 1B 23 May 05:39:33 05:43:57 26° 297° (WNW) 05:48:15 435.225
MOZHAYETS 4 23 May 05:40:03 05:44:38 70° 258° (WSW) 05:49:13
PHONESAT 2.4 23 May 06:03:10 06:05:01 14° 157° (SSE) 06:06:55 2401.200-2431.200
JAS-2 23 May 06:08:41 06:13:55 69° 288° (WNW) 06:19:05 435.910
BEESAT 2 23 May 06:09:28 06:12:18 18° 247° (WSW) 06:14:59 435.950
M-CUBED/EXP-1 PRIME 23 May 06:11:15 06:12:40 12° 56° (NE) 06:14:13 437.505
AUBIESAT-1 23 May 06:23:07 06:25:02 13° 57° (ENE) 06:27:03 437.475
VERMONT LUNAR 23 May 06:26:02 06:28:43 25° 173° (S) 06:31:24 437.305
ISS 23 May 06:31:20 06:34:29 41° 13° (NNE) 06:37:37 145.825
PCSat 23 May 06:34:13 06:35:17 10° 343° (NNW) 06:36:16 145.827
STRAND 1 23 May 06:39:45 06:43:45 25° 63° (ENE) 06:47:54 437.568
Cosmos 2491 23 May 06:48:22 06:56:12 34° 65° (ENE) 07:04:06 435.465 / 435.565
SO-50 23 May 06:56:02 07:00:24 34° 320° (NW) 07:04:51 436.795
HORYU 2 23 May 07:01:06 07:04:07 18° 298° (WNW) 07:06:59 437.375
CUBESAT XI-V 23 May 07:06:22 07:10:58 80° 75° (ENE) 07:15:37 437.345
CUTE-I 23 May 07:07:51 07:11:56 22° 91° (E) 07:16:08 437.470
AIST 2 23 May 07:09:24 07:11:59 15° 248° (WSW) 07:14:24 435.215
PRISM 23 May 07:10:28 07:14:20 43° 70° (ENE) 07:18:15 437.425
AO-7 23 May 07:13:27 07:21:27 50° 299° (WNW) 07:29:22 29.400- 29.500
Cubesat XI-IV 23 May 07:26:40 07:31:26 32° 95° (E) 07:36:14 437.490
PHONESAT 2.4 23 May 07:39:32 07:42:31 27° 173° (S) 07:45:31 2401.200-2431.200
M-CUBED/EXP-1 PRIME 23 May 07:42:44 07:47:05 90° 69° (ENE) 07:51:05 437.505
YUBILEINY 23 May 07:46:41 07:53:32 28° 82° (E) 08:00:37 435.215
AUBIESAT-1 23 May 07:55:10 07:59:27 77° 251° (WSW) 08:03:25 437.475
JAS-2 23 May 07:56:42 07:58:09 11° 307° (NW) 07:59:20 435.910
VERMONT LUNAR 23 May 08:02:50 08:05:26 23° 190° (S) 08:08:03 437.305
ISS 23 May 08:07:47 08:11:00 54° 211° (SSW) 08:14:12 145.825
STRAND 1 23 May 08:17:45 08:22:42 50° 260° (W) 08:27:41 437.568
AIST 1 23 May 08:39:24 08:43:24 35° 73° (ENE) 08:47:27
HO-68 23 May 08:39:39 08:40:18 10° 80° (E) 08:41:33 435.675
SO-50 23 May 08:40:23 08:42:26 12° 343° (NNW) 08:44:26 436.795
Cosmos 2491 23 May 08:45:00 08:53:43 62° 268° (W) 09:02:19 435.465 / 435.565
CUBESAT XI-V 23 May 08:47:05 08:49:06 12° 274° (W) 08:50:53 437.345
PRISM 23 May 08:47:08 08:50:03 18° 269° (W) 08:52:52 437.425
CUTE-I 23 May 08:47:10 08:52:26 57° 290° (WNW) 08:57:40 437.470
Cubesat XI-IV 23 May 09:06:38 09:11:38 40° 293° (WNW) 09:16:35 437.490
AO-7 23 May 09:08:05 09:12:27 15° 321° (NW) 09:16:30 29.400- 29.500
BRITE-PL 23 May 09:11:01 09:16:11 35° 93° (E) 09:21:16 437.365/2234.400
PHONESAT 2.4 23 May 09:17:15 09:20:10 25° 190° (S) 09:23:04 2401.200-2431.200
DOVE 4 23 May 09:20:13 09:23:37 18° 86° (E) 09:27:05 437.250
GOMX 1 23 May 09:35:32 09:40:33 36° 94° (E) 09:45:26 467.674
AAUSAT CUBESAT 2 23 May 09:35:44 09:36:28 10° 86° (E) 09:37:25 437.432
YUBILEINY 23 May 09:40:53 09:49:40 73° 282° (WNW) 09:58:26 435.215
TIGRISAT 23 May 09:47:03 09:48:28 11° 58° (ENE) 09:50:06 435.000
Cosmos 2504 23 May 09:50:23 09:54:41 16° 78° (ENE) 09:59:17 435.465 / 435.565
RS-15 23 May 09:56:22 10:05:51 38° 109° (ESE) 10:15:48 29.354- 29.394
CANX-2 23 May 09:59:18 10:03:13 36° 96° (E) 10:07:07 2200.000
PCSat 23 May 10:03:04 10:07:06 21° 35° (NE) 10:11:13 145.827
CUTE 1.7 + AOD 2 23 May 10:03:32 10:07:26 36° 96° (E) 10:11:21 437.475
UNISAT 6 23 May 10:03:55 10:06:49 17° 61° (ENE) 10:09:50 437.425
AIST 1 23 May 10:17:23 10:20:55 24° 271° (W) 10:24:22
DUCHIFAT 1 23 May 10:20:45 10:21:00 10° 58° (ENE) 10:21:28 145.980
HO-68 23 May 10:22:43 10:29:49 60° 102° (ESE) 10:36:52 435.675
SO-50 23 May 10:24:55 10:25:11 10° 8° (N) 10:25:30 436.795
DELFI C3 23 May 10:30:10 10:32:14 14° 89° (E) 10:34:26 145.870
CUTE-I 23 May 10:30:49 10:31:31 10° 308° (NW) 10:31:56 437.470
FUNcube-1 23 May 10:32:12 10:33:51 12° 85° (E) 10:35:42 145.935
SEEDS 23 May 10:32:42 10:36:52 62° 101° (E) 10:40:59 437.485
Cosmos 2491 23 May 10:45:10 10:48:53 13° 288° (WNW) 10:52:00 435.465 / 435.565
ANTELSAT 23 May 10:45:25 10:49:44 38° 69° (ENE) 10:54:04 437.575/2403.000
CUBEBUG 2 23 May 10:49:09 10:53:06 29° 93° (E) 10:56:59 437.445
BRITE-PL 23 May 10:49:24 10:54:45 41° 292° (WNW) 10:59:55 437.365/2234.400
COMPASS 1 23 May 10:52:45 10:56:56 83° 104° (ESE) 11:01:05 437.405
POLYITAN 1 23 May 10:55:58 10:59:20 23° 65° (ENE) 11:02:48 437.675
QB50P1 23 May 10:56:22 10:59:42 23° 65° (ENE) 11:03:08 145.935-145.965
PHONESAT 2.4 23 May 10:56:28 10:57:37 11° 206° (SSW) 10:58:41 2401.200-2431.200
DOVE 4 23 May 10:56:43 11:01:58 67° 287° (WNW) 11:06:57 437.250
BUGSAT 1 23 May 11:00:12 11:02:53 17° 63° (ENE) 11:05:43 437.445
CINEMA 3 23 May 11:05:40 11:10:35 81° 103° (ESE) 11:15:15 145.822/145.860
AAUSAT CUBESAT 2 23 May 11:08:34 11:12:43 78° 285° (WNW) 11:16:50 437.432
ZACube-1 23 May 11:09:16 11:13:08 29° 94° (E) 11:16:56 437.345
GOMX 1 23 May 11:13:38 11:18:39 36° 293° (WNW) 11:23:26 467.674
TIGRISAT 23 May 11:19:49 11:24:31 78° 75° (ENE) 11:29:13 435.000
UKube-1 23 May 11:20:30 11:23:27 18° 91° (E) 11:26:31 .
VELOX 1 23 May 11:22:42 11:23:25 10° 85° (E) 11:24:25 145.980
DX 1 23 May 11:22:48 11:26:04 21° 92° (E) 11:29:25 434.975-435.025
NANOSAT C BR1 23 May 11:28:26 11:32:30 45° 71° (ENE) 11:36:38 145.865
Oscar 11 23 May 11:31:10 11:35:31 85° 106° (ESE) 11:39:48 145.826/435.025
QB50P2 23 May 11:33:12 11:37:22 53° 72° (ENE) 11:41:36 145.880/145.840
CANX-2 23 May 11:35:35 11:39:00 24° 294° (WNW) 11:42:20 2200.000
HUMSAT D 23 May 11:37:42 11:41:16 27° 94° (E) 11:44:51 437.325/437.525
UNISAT 6 23 May 11:38:26 11:43:07 69° 258° (WSW) 11:47:49 437.425
Cosmos 2504 23 May 11:38:38 11:47:02 76° 96° (E) 11:54:53 435.465 / 435.565
CUTE 1.7 + AOD 2 23 May 11:39:48 11:43:12 24° 294° (WNW) 11:46:32 437.475
YUBILEINY 23 May 11:42:38 11:48:28 18° 307° (NW) 11:53:54 435.215
UWE-3 23 May 11:45:04 11:49:35 86° 103° (ESE) 11:53:56 435.000/436.395/437.385
PCSat 23 May 11:45:52 11:51:20 87° 54° (NE) 11:56:47 145.827
POPSAT HIP 1 23 May 11:46:27 11:50:43 71° 74° (ENE) 11:55:02 437.405
AISAT 23 May 11:50:35 11:54:00 22° 92° (E) 11:57:32 437.250
DUCHIFAT 1 23 May 11:51:51 11:56:07 79° 76° (ENE) 12:00:26 145.980
50 SAT 23 May 11:56:51 12:00:02 24° 93° (E) 12:03:14 437.505
DELFI C3 23 May 12:03:48 12:07:45 55° 287° (WNW) 12:11:39 145.870
SO-50 23 May 12:03:51 12:07:37 21° 31° (NNE) 12:11:25 436.795
FUNcube-1 23 May 12:06:25 12:10:50 74° 286° (WNW) 12:15:06 145.935
RS-15 23 May 12:06:39 12:17:34 71° 313° (NW) 12:28:54 29.354- 29.394
SEEDS 23 May 12:09:45 12:12:14 15° 298° (WNW) 12:14:34 437.485
HO-68 23 May 12:10:59 12:17:14 33° 301° (WNW) 12:23:22 435.675
ANTELSAT 23 May 12:22:35 12:26:37 27° 267° (W) 12:30:34 437.575/2403.000
CUBEBUG 2 23 May 12:25:44 12:29:49 32° 293° (WNW) 12:33:44 437.445
COMPASS 1 23 May 12:30:29 12:32:03 12° 300° (WNW) 12:33:25 437.405
POLYITAN 1 23 May 12:30:59 12:35:02 39° 262° (W) 12:39:08 437.675
QB50P1 23 May 12:31:20 12:35:22 39° 262° (W) 12:39:26 145.935-145.965
CUSAT 1 23 May 12:31:59 12:32:24 10° 72° (ENE) 12:33:27 437.405
BUGSAT 1 23 May 12:33:57 12:38:00 52° 260° (W) 12:42:07 437.445
DOVE 4 23 May 12:36:53 12:38:46 12° 305° (NW) 12:40:24 437.250
ESTCUBE 1 23 May 12:42:54 12:47:12 42° 98° (E) 12:51:30 437.505/2401.250
CINEMA 3 23 May 12:44:19 12:47:08 15° 301° (WNW) 12:49:44 145.822/145.860
ZACube-1 23 May 12:45:36 12:49:29 30° 293° (WNW) 12:53:14 437.345
UKube-1 23 May 12:55:41 12:59:55 50° 289° (WNW) 13:04:07 .
VELOX 1 23 May 12:56:12 13:00:44 89° 282° (WNW) 13:05:14 145.980
DX 1 23 May 12:58:20 13:02:33 44° 290° (WNW) 13:06:44 434.975-435.025
TIGRISAT 23 May 12:59:30 13:01:53 13° 273° (W) 13:04:02 435.000
NANOSAT C BR1 23 May 13:05:29 13:08:37 19° 269° (W) 13:11:39 145.865
TISAT 1 23 May 13:06:05 13:08:17 14° 88° (E) 13:10:40 437.305
CUBEBUG 1 23 May 13:06:20 13:10:46 64° 101° (E) 13:15:12 437.445
Oscar 11 23 May 13:09:18 13:11:06 12° 300° (WNW) 13:12:44 145.826/435.025
QB50P2 23 May 13:10:47 13:13:38 17° 270° (W) 13:16:21 145.880/145.840
DANDE 23 May 13:11:06 13:15:13 17° 76° (ENE) 13:20:06 436.750
HUMSAT D 23 May 13:13:19 13:17:03 30° 292° (WNW) 13:20:40 437.325/437.525
UWE-3 23 May 13:23:27 13:25:28 13° 301° (WNW) 13:27:17 435.000/436.395/437.385
Oscar 19 23 May 13:25:00 13:29:36 34° 66° (ENE) 13:34:17 437.125/150
POPSAT HIP 1 23 May 13:25:11 13:27:10 13° 273° (W) 13:28:57 437.405
AISAT 23 May 13:26:32 13:30:50 44° 290° (WNW) 13:35:05 437.250
PCSat 23 May 13:30:54 13:34:07 15° 254° (WSW) 13:37:05 145.827
DUCHIFAT 1 23 May 13:31:10 13:32:35 11° 274° (W) 13:33:46 145.980
50 SAT 23 May 13:31:20 13:34:48 30° 292° (WNW) 13:38:10 437.505
ITAMSAT 1 23 May 13:32:30 13:35:03 14° 56° (NE) 13:37:48 435.822/435.867
Cosmos 2504 23 May 13:34:29 13:41:17 26° 297° (WNW) 13:47:32 435.465 / 435.565
SO-50 23 May 13:43:53 13:48:54 87° 56° (NE) 13:53:49 436.795
Gurwin Techsat 1B 23 May 13:45:40 13:48:58 17° 58° (ENE) 13:52:25 435.225
SPROUT 23 May 14:01:00 14:05:22 70° 101° (E) 14:09:42 437.525
CUSAT 1 23 May 14:06:26 14:13:14 50° 91° (E) 14:21:08 437.405
GONETS M04 23 May 14:09:11 14:17:26 48° 89° (E) 14:25:50
ESTCUBE 1 23 May 14:20:13 14:23:53 24° 295° (WNW) 14:27:26 437.505/2401.250
RS-15 23 May 14:22:28 14:32:20 35° 344° (NNW) 14:42:32 29.354- 29.394
AO-7 23 May 14:33:28 14:39:07 21° 46° (NE) 14:45:01 29.400- 29.500
Cosmos 2499 23 May 14:34:26 14:35:34 11° 75° (ENE) 14:37:16 435.465 / 435.565
VELOX 1 23 May 14:34:45 14:36:39 12° 302° (WNW) 14:38:22 145.980
TISAT 1 23 May 14:40:18 14:44:33 62° 287° (WNW) 14:48:46 437.305
JAS-2 23 May 14:41:42 14:44:46 14° 56° (NE) 14:47:58 435.910
CUBEBUG 1 23 May 14:43:51 14:46:42 17° 298° (WNW) 14:49:25 437.445
DANDE 23 May 14:50:07 14:56:59 75° 97° (E) 15:05:21 436.750
HORYU 2 23 May 14:51:48 14:52:47 11° 57° (ENE) 14:53:59 437.375
Oscar 19 23 May 15:04:08 15:08:56 37° 264° (W) 15:13:44 437.125/150
ITAMSAT 1 23 May 15:08:41 15:13:50 84° 76° (ENE) 15:19:04 435.822/435.867
ITUPSAT 1 23 May 15:13:27 15:18:04 47° 99° (E) 15:22:42 437.325
Gurwin Techsat 1B 23 May 15:23:02 15:28:21 81° 255° (WSW) 15:33:43 435.225
BEESAT 23 May 15:23:43 15:28:26 60° 101° (E) 15:33:10 436.000
SO-50 23 May 15:25:59 15:28:50 15° 250° (WSW) 15:31:28 436.795
SWISSCUBE 23 May 15:31:31 15:36:20 77° 103° (ESE) 15:41:07 437.505
SPROUT 23 May 15:38:29 15:40:58 15° 299° (WNW) 15:43:17 437.525
CUSAT 1 23 May 15:49:15 15:56:10 42° 294° (WNW) 16:03:55 437.405
GONETS M04 23 May 16:06:03 16:14:27 44° 291° (WNW) 16:22:48
STARS 23 May 16:09:43 16:13:08 22° 92° (E) 16:16:38 437.465
Cosmos 2499 23 May 16:19:25 16:27:24 58° 93° (E) 16:34:50 435.465 / 435.565
JAS-2 23 May 16:22:24 16:29:10 71° 73° (ENE) 16:35:09 435.910
HORYU 2 23 May 16:24:15 16:28:44 78° 75° (ENE) 16:33:14 437.375
